Flag for Bermuda Weather past 2 weeks in Hamilton, Bermuda

Now
82 °F

Broken clouds.


Feels Like: 87 °F
Forecast: 79 / 84 °F
Wind: 16 mph from Southwest

Location: Bermuda

Current Time: Jul 24, 2014 at 8:03:55 PM

Latest Report: Jul 24, 2014 at 6:55 PM


Visibility: N/A

Pressure: 30.15 "Hg

Humidity: 70%

Dew point: 72 °F

Location of HamiltonLocation

Historic Weather in Hamilton — Graph

°F

Hamilton temperature yesterday

Maximum temperature yesterday: 84 °F (at 12:55 PM)
Minimum temperature yesterday: 77 °F (at 12:55 AM)
Average temperature yesterday: 82 °F

Past Weeks' High & Low Weather Summary

 TemperatureHumidityPressure
High84 °F (Jul 10, 11:55 AM)89% (Jul 16, 2:55 AM)30.33 "Hg (Jul 16, 2:55 AM)
Low73 °F (Jul 17, 11:55 PM)55% (Jul 20, 2:55 PM)30.09 "Hg (Jul 16, 1:55 AM)
Average81 °F75%30.22 "Hg
* Reported Jul 9 6:55 PM — Jul 24 6:55 PM, Hamilton, Weather by CustomWeather, © 2014

Note: Actual official high and low records may vary slightly from our data, if they occured in-between our weather recording intervals... More about our weather records

Advertising

Hamilton weather history for previous 24 hours

 ConditionsComfort  
Time TempWeatherWind HumidityBarometerVisibility
6:55 PM
Jul 24
82 °FBroken clouds.16 mph70%30.15 "HgN/A
5:55 PM84 °FBroken clouds.15 mph66%30.12 "HgN/A
4:55 PM82 °FBroken clouds.15 mph70%30.12 "HgN/A
3:55 PM82 °FBroken clouds.17 mph66%30.15 "HgN/A
2:55 PM84 °FBroken clouds.16 mph62%30.15 "HgN/A
1:55 PM84 °FBroken clouds.17 mph62%30.18 "HgN/A
12:55 PM84 °FBroken clouds.17 mph62%30.18 "HgN/A
11:55 AM82 °FBroken clouds.17 mph66%30.18 "HgN/A
10:55 AM82 °FBroken clouds.16 mph70%30.18 "HgN/A
9:55 AM81 °FBroken clouds.16 mph70%30.18 "HgN/A
8:55 AM82 °FBroken clouds.15 mph70%30.18 "HgN/A
7:55 AM81 °FBroken clouds.14 mph74%30.15 "HgN/A
6:55 AM79 °FPartly cloudy.13 mph79%30.15 "HgN/A
5:55 AM79 °FPassing clouds.13 mph79%30.15 "HgN/A
4:55 AM79 °FScattered showers. Partly cloudy.10 mph79%30.15 "HgN/A
3:55 AM79 °FPartly cloudy.9 mph79%30.15 "HgN/A
2:55 AM79 °FPartly cloudy.8 mph84%30.15 "HgN/A
1:55 AM79 °FPartly cloudy.7 mph84%30.15 "HgN/A
12:55 AM79 °FPassing clouds.9 mph79%30.18 "HgN/A
11:55 PM
Jul 23
79 °FPassing clouds.10 mph79%30.18 "HgN/A
10:55 PM81 °FPassing clouds.8 mph79%30.21 "HgN/A
9:55 PM81 °FPassing clouds.9 mph74%30.18 "HgN/A
8:55 PM81 °FPartly sunny.10 mph70%30.18 "HgN/A
Weather by CustomWeather, © 2014

See weather overviewHow to use our weather pages